Theta_e
322 326 326 322 323 326 329 330 329 330 331 331 331 331 331 330 329 329 328 329 330 330 329 329 329 329 329 328 328 327 326 327 327 328 329 328 328 328 328 328 328 329 329 330 331 332 331 330 330 331 331 332 333 333 333 332 330 328 327 325 323 322 322 322 322 323 324 325 326 323 316 311 312 316 321 323 327 333 335 334 333 333 334 334 335
320 324 327 323 321 325 328 329 328 328 329 330 331 332 332 331 331 330 330 330 331 331 329 329 330 331 330 329 328 328 327 327 328 329 330 328 328 328 328 328 328 328 329 330 331 332 331 330 331 331 331 331 332 333 333 331 330 330 330 328 327 326 324 323 323 323 324 325 327 327 320 312 311 316 318 322 332 336 336 336 335 334 333 332 333
320 321 325 322 319 324 328 328 327 327 327 326 328 331 333 333 333 332 332 332 331 331 331 331 332 332 331 329 328 329 328 329 329 330 329 327 327 328 328 328 327 328 329 329 330 331 331 331 331 332 331 330 332 332 332 330 330 330 331 330 329 328 328 327 326 324 323 324 326 328 324 317 314 319 320 322 334 338 335 335 336 337 334 332 331
320 319 321 319 318 323 327 327 325 323 324 324 325 331 333 332 332 332 332 332 332 332 331 331 332 332 330 329 330 330 329 329 328 328 327 326 326 327 328 328 328 328 329 329 330 331 332 332 332 334 332 330 329 329 328 328 329 330 330 330 330 329 329 329 328 326 324 323 323 326 327 325 320 321 326 325 329 330 327 331 336 338 336 334 332
318 317 316 316 318 323 326 324 320 318 320 324 327 330 330 329 327 328 328 327 328 328 327 327 327 328 326 327 329 328 328 327 327 326 326 326 326 327 328 328 328 329 329 330 331 332 333 334 334 334 330 328 327 326 325 325 327 328 328 329 329 329 328 328 328 327 327 324 321 322 323 326 325 327 334 331 327 324 321 326 331 334 334 334 333
317 316 315 315 319 324 323 318 315 315 317 320 324 323 321 320 318 319 320 319 320 320 321 320 320 320 321 321 322 322 322 323 323 323 323 323 324 324 325 326 325 327 329 330 332 333 333 332 331 329 327 327 327 326 326 326 327 327 328 328 328 328 328 328 329 329 328 326 323 321 320 320 321 324 334 335 332 330 326 326 326 325 325 323 325
316 316 315 316 319 322 319 313 313 314 314 315 316 315 314 314 314 314 314 315 316 317 318 317 316 317 318 318 318 318 318 318 318 318 318 319 319 320 321 322 322 323 326 328 330 331 330 329 328 327 328 328 328 328 327 327 327 328 328 329 329 329 330 329 330 331 330 329 326 325 323 321 319 318 325 331 331 334 332 327 327 325 322 319 316
316 316 315 315 317 318 315 312 313 313 313 313 313 313 313 313 313 313 313 313 314 314 315 314 313 315 315 316 317 316 316 316 315 315 315 315 316 316 317 317 318 319 321 323 325 327 327 327 326 326 327 327 326 326 327 327 327 328 328 328 329 329 330 330 330 331 331 331 330 329 326 323 322 320 319 323 326 329 328 321 322 325 325 325 322
316 316 316 316 315 315 314 313 313 313 314 313 313 313 313 313 313 312 313 312 312 312 312 312 312 312 313 313 313 313 313 313 312 312 312 312 312 312 312 312 313 314 315 315 316 318 319 319 319 320 321 322 322 322 323 325 325 326 326 326 326 326 327 327 328 329 330 331 331 331 330 327 325 323 321 323 325 326 323 319 319 320 321 323 325
317 316 315 315 314 314 313 313 314 314 314 313 313 312 311 311 311 311 311 311 311 311 311 311 311 311 311 311 311 310 311 310 310 310 310 310 309 309 309 309 309 310 310 310 311 311 312 312 313 313 314 315 316 317 318 319 319 320 320 319 319 319 320 321 322 323 326 328 329 329 331 331 329 327 323 322 324 325 324 321 320 318 318 319 321
317 315 315 315 314 314 313 314 314 314 313 312 312 310 310 310 310 310 310 310 310 310 310 310 310 309 309 309 308 308 307 307 307 307 306 306 306 306 306 307 307 307 307 307 307 307 308 308 309 309 310 310 311 311 311 311 311 311 311 312 312 312 313 313 314 315 317 321 323 324 326 328 330 330 328 325 322 325 327 323 321 319 318 317 318
317 315 314 314 313 314 314 314 314 314 313 312 311 310 310 309 309 310 309 309 309 309 309 309 308 307 307 306 306 305 305 304 304 304 304 304 304 304 304 304 304 304 304 304 304 304 304 304 304 304 305 305 305 305 305 305 305 305 306 306 306 307 308 309 310 311 312 314 316 317 319 320 323 326 328 328 325 326 329 328 326 323 321 319 317
317 316 314 314 313 313 313 314 313 313 312 311 310 310 309 309 309 309 309 309 309 309 308 307 306 305 305 305 304 304 304 304 304 304 304 304 303 303 303 303 303 303 303 303 303 303 303 303 303 303 303 303 303 303 303 303 303 303 303 303 304 304 305 305 306 307 309 310 312 313 314 315 317 319 323 325 326 327 329 331 330 327 325 324 321
317 316 315 314 313 314 313 313 313 312 312 311 310 309 309 309 309 308 308 308 308 307 306 305 305 305 305 305 305 305 305 304 304 304 304 303 303 303 303 303 303 303 303 303 303 303 303 303 303 302 302 303 302 303 303 303 303 303 303 303 303 304 304 304 304 305 305 306 308 310 312 314 315 316 317 319 321 324 328 331 329 326 325 324 324
316 317 315 314 314 314 314 313 313 312 311 310 310 309 309 309 308 308 308 307 306 305 304 305 305 305 305 305 305 305 305 304 304 304 303 303 303 303 303 303 303 303 303 303 303 302 303 302 303 303 302 302 302 303 302 303 303 303 303 303 303 303 303 303 304 304 304 305 305 307 309 311 313 314 315 315 316 317 322 327 326 324 322 320 322
316 317 315 314 313 314 314 313 312 311 310 310 310 309 309 308 308 308 306 305 304 304 304 304 305 305 305 305 305 305 305 304 304 303 303 303 303 303 303 303 303 302 302 302 303 302 303 303 302 303 303 303 303 303 303 303 302 302 303 303 303 303 303 303 303 304 304 304 304 304 305 307 309 311 312 313 314 317 322 326 325 325 323 321 323
316 316 316 314 314 314 313 313 312 311 310 310 309 309 309 308 308 307 305 304 304 304 304 304 304 304 305 305 305 305 304 304 303 303 303 303 303 302 302 302 302 302 302 302 303 303 303 303 303 303 303 303 303 303 302 302 302 302 302 302 302 303 303 303 303 303 303 304 304 304 304 304 306 307 309 311 313 317 323 325 325 327 327 326 326
315 316 316 315 314 313 313 313 312 311 310 310 310 310 309 308 308 307 305 304 304 304 304 304 304 305 305 305 305 305 304 303 303 303 302 302 302 302 302 302 302 302 302 303 303 303 303 303 303 303 303 303 302 302 302 302 302 302 302 302 302 302 302 302 303 303 303 303 303 303 303 303 304 305 307 311 313 316 322 327 328 328 329 328 327
315 316 316 316 315 313 313 313 312 312 311 311 310 310 309 309 308 307 306 304 304 304 304 304 304 304 305 305 305 305 304 303 303 303 302 302 302 302 302 302 302 302 302 303 303 304 304 304 304 304 304 303 303 302 302 302 301 301 301 301 301 301 301 302 302 302 302 303 303 303 303 303 303 305 307 309 311 313 319 325 327 327 328 327 324
314 315 316 316 315 314 313 313 312 312 311 311 310 310 310 309 309 308 306 305 304 304 304 304 304 304 305 305 305 305 304 303 303 302 302 302 302 302 302 302 302 303 303 303 304 304 304 304 304 304 304 304 304 303 303 302 302 302 301 301 301 301 301 301 301 301 302 302 302 302 302 302 302 303 305 307 307 308 311 315 318 320 322 321 320
315 314 315 316 316 315 313 313 312 312 311 311 311 310 310 309 309 308 307 305 305 304 304 304 304 304 304 305 305 305 304 303 303 302 302 302 302 302 302 302 302 303 304 304 304 304 305 304 304 304 304 304 304 304 304 303 303 303 302 302 301 301 301 301 301 301 301 301 301 302 302 302 302 301 302 303 304 304 305 307 308 309 310 310 309
314 314 314 315 315 315 314 313 312 312 311 311 311 310 310 309 309 308 307 306 305 305 304 304 304 304 304 305 306 306 305 304 303 303 302 302 302 302 302 302 303 303 304 304 304 304 304 304 304 304 304 304 305 304 304 304 304 304 303 302 302 301 301 301 301 301 301 301 301 301 301 301 301 301 301 301 301 302 302 302 303 303 303 303 303
314 314 314 314 315 315 315 314 313 312 311 311 310 310 310 309 309 308 307 306 305 305 304 304 304 304 305 305 306 306 306 305 304 303 302 302 302 303 303 303 303 303 304 304 304 304 304 304 304 304 304 304 304 305 305 305 305 304 304 303 303 302 301 301 301 301 301 301 301 301 301 301 301 301 301 301 301 301 301 301 301 302 302 302 302
315 315 315 314 314 314 314 314 313 312 311 311 310 310 310 309 309 308 308 306 305 304 304 304 304 304 304 305 306 306 306 306 305 304 303 303 303 303 303 304 304 304 304 304 304 304 304 304 304 304 304 304 304 305 305 305 305 305 304 304 303 302 302 301 301 301 301 301 301 301 301 301 301 301 301 301 301 301 301 301 301 301 302 302 302
315 315 314 314 314 314 314 314 313 312 311 311 310 310 310 309 309 308 308 307 305 304 304 304 303 303 304 305 305 306 306 307 306 305 303 303 303 304 304 304 304 304 304 304 303 303 303 303 303 303 304 304 304 304 304 304 305 305 304 304 303 302 302 301 301 301 301 301 301 301 301 301 301 301 301 301 301 301 301 301 301 301 301 302 302
314 314 314 314 314 313 314 314 313 313 312 311 310 310 310 310 309 308 308 307 306 303 303 303 303 303 303 304 304 305 306 307 307 306 304 303 304 304 304 304 303 303 303 303 303 303 303 303 303 303 303 303 304 304 304 304 304 304 304 304 303 302 301 301 301 301 301 301 301 301 301 301 301 301 302 302 301 302 301 301 301 301 301 301 301
315 314 314 314 314 313 313 313 313 313 312 311 310 309 309 309 309 308 308 308 306 304 303 303 302 303 303 304 304 304 305 306 307 306 305 303 304 304 303 303 303 303 303 303 303 303 303 302 303 303 303 303 303 303 304 304 304 303 303 302 302 301 301 300 300 300 300 301 301 301 302 302 302 302 302 302 302 302 301 302 301 301 301 301 301
315 315 314 314 313 313 313 313 313 313 312 311 310 309 309 309 308 308 308 307 306 305 304 302 302 303 303 303 303 303 304 304 306 306 305 304 303 303 303 303 303 303 303 303 303 302 302 302 302 302 302 303 303 303 303 303 303 303 302 301 300 300 300 299 299 300 300 300 300 301 301 302 302 302 302 302 302 302 301 301 301 301 301 301 301
315 315 314 314 314 313 313 313 313 313 312 311 310 309 309 309 308 308 308 307 307 306 304 302 302 302 303 303 302 302 303 303 305 305 304 304 303 303 303 303 302 303 302 302 302 302 302 302 302 302 302 302 302 302 303 303 303 302 301 300 299 299 299 299 299 299 299 299 300 300 301 301 301 302 302 302 302 302 301 301 301 301 300 300 300
315 315 314 314 314 313 313 313 312 313 312 311 310 309 309 309 309 308 308 307 307 306 304 302 302 302 302 302 302 302 302 303 303 304 304 303 303 303 302 302 302 302 302 302 302 302 302 302 302 302 302 302 302 302 302 302 302 301 300 300 299 299 299 299 299 299 299 299 300 300 300 300 301 301 301 301 301 301 301 301 301 301 300 300 300
315 315 315 314 314 313 313 313 312 312 312 312 311 310 309 309 309 308 308 308 307 306 305 304 302 302 302 302 302 301 302 302 303 304 303 303 303 302 302 302 302 302 302 302 302 301 302 302 302 302 302 302 302 302 302 302 302 301 300 299 299 298 298 298 298 299 299 299 299 300 300 300 300 300 300 300 300 301 301 300 301 300 300 300 300
315 315 315 314 314 313 313 312 312 312 312 312 311 311 310 309 309 308 308 307 307 306 306 305 303 302 301 301 301 301 302 302 303 303 303 303 302 302 302 302 302 302 302 301 301 301 301 302 302 302 301 301 302 302 302 302 301 301 300 299 298 298 298 298 298 298 299 299 299 299 299 299 299 299 299 299 300 300 300 300 300 300 300 299 299
315 315 315 314 314 313 313 312 312 312 311 311 311 311 310 309 308 308 308 307 307 306 306 305 303 302 301 301 301 301 302 302 302 303 302 302 302 302 302 302 302 302 301 301 301 301 301 301 301 301 301 301 301 302 302 302 301 300 300 299 298 297 297 297 297 298 298 299 299 299 299 299 299 298 298 299 299 299 299 299 299 299 299 299 299
315 315 314 314 314 314 313 312 312 311 311 311 311 310 310 309 308 308 307 307 306 306 306 305 304 302 301 301 301 301 302 302 302 302 302 302 301 301 301 301 301 301 301 301 301 301 301 301 301 301 301 301 301 301 301 301 301 301 300 299 298 298 297 297 297 298 298 298 299 299 298 298 298 298 298 299 299 298 298 298 299 299 299 299 299
315 314 314 314 314 314 313 313 312 312 311 311 310 310 310 309 308 308 307 307 306 306 305 305 304 303 302 301 301 302 302 302 302 302 302 301 301 301 301 301 301 301 301 301 301 301 301 301 301 301 300 300 301 301 301 301 301 301 301 299 298 298 297 297 297 298 298 298 299 298 298 298 298 298 298 299 298 298 298 298 299 299 299 299 299
315 315 314 314 314 313 313 313 312 312 311 311 310 309 309 309 308 308 307 307 306 306 305 305 304 304 303 303 302 302 302 302 301 301 301 301 301 301 301 301 301 301 301 301 300 300 301 300 300 300 300 300 300 300 301 301 301 301 301 300 298 298 297 297 297 298 298 298 299 298 298 298 298 298 298 298 298 298 298 298 299 299 299 299 299
315 315 314 314 314 313 313 313 312 312 312 311 310 309 309 308 308 307 307 306 306 305 305 304 304 304 304 304 303 303 302 301 301 301 301 300 300 300 301 301 301 301 300 300 300 300 300 300 300 300 299 300 300 300 300 300 301 301 301 300 298 298 297 297 297 297 298 298 298 297 297 297 297 297 297 296 296 297 297 298 298 298 298 299 299
315 315 314 314 314 313 313 313 312 312 311 311 310 308 308 307 307 306 306 305 305 305 304 304 304 304 304 304 303 302 301 301 301 300 300 300 300 300 300 300 300 300 300 300 300 300 300 300 300 299 299 299 299 299 300 300 301 301 301 300 298 297 297 297 297 297 298 298 297 297 297 296 296 296 295 295 295 296 296 296 296 296 297 298 298
315 315 314 314 314 313 313 312 312 311 310 310 309 307 307 306 306 305 305 304 304 304 303 303 304 303 304 303 303 302 301 300 300 300 300 300 300 300 300 300 300 300 300 300 300 300 299 299 299 299 299 299 299 299 300 300 300 301 301 299 298 297 296 296 297 297 297 296 296 296 296 295 295 295 295 295 295 295 295 295 295 295 295 296 297
315 314 314 314 313 313 312 311 311 310 310 309 307 306 306 305 305 304 304 304 304 303 303 303 303 303 303 303 302 301 300 300 300 299 299 299 299 300 300 300 300 300 300 300 299 299 299 299 299 298 298 298 298 298 299 299 300 300 300 299 298 297 296 296 296 296 295 295 295 295 295 295 295 295 294 294 294 295 295 294 294 294 294 295 295
314 314 313 314 313 313 312 312 311 310 309 309 308 307 306 306 305 305 306 306 305 304 304 303 303 303 303 302 302 301 300 299 299 299 299 299 299 299 300 300 300 300 299 299 299 299 298 298 298 298 298 298 298 298 298 298 299 299 300 301 299 297 296 296 296 296 294 294 295 295 294 294 294 294 294 294 294 294 294 293 293 293 293 294 294
314 314 314 314 313 313 312 311 311 310 310 309 309 308 308 307 307 307 307 307 306 306 305 305 303 303 303 302 302 301 300 299 299 299 299 299 299 299 299 300 299 299 299 299 298 298 298 298 298 298 298 298 297 297 297 297 297 297 298 300 299 297 296 296 296 295 294 294 295 294 294 294 294 294 294 294 294 294 293 293 293 293 293 293 293
314 314 314 313 313 312 312 311 311 310 310 309 309 309 308 308 307 307 307 307 306 306 306 305 304 303 303 302 302 301 299 299 299 298 298 299 299 299 299 299 299 299 299 298 298 298 298 298 298 298 297 297 297 296 296 296 296 295 295 296 296 296 295 296 295 294 294 295 294 294 294 294 294 294 294 294 294 294 294 294 294 293 293 293 293
313 314 313 313 313 312 312 311 311 310 310 310 309 308 308 307 306 306 306 306 305 305 304 304 303 303 302 302 302 301 299 299 298 298 298 299 298 299 299 299 299 299 298 298 298 298 297 297 297 297 297 297 297 296 295 294 294 294 293 293 293 293 293 293 294 295 295 295 294 294 294 294 295 295 295 295 294 294 294 294 294 294 293 293 292
313 313 313 313 313 313 312 311 311 310 310 309 308 308 307 306 305 304 304 304 303 303 303 304 303 303 302 302 302 301 300 298 298 298 298 298 298 298 299 298 298 298 298 298 298 297 297 297 297 297 297 297 297 296 295 293 292 292 292 291 291 291 291 291 292 294 296 295 295 295 294 294 295 295 295 295 295 295 294 294 294 293 293 293 293
314 314 313 313 313 312 312 311 310 310 309 308 308 307 307 306 305 305 304 304 304 304 305 306 306 305 305 303 302 301 300 298 298 298 298 298 298 298 298 298 298 298 298 297 297 297 297 297 297 297 297 296 296 296 295 293 291 291 290 290 290 290 290 290 290 291 294 296 296 295 294 294 295 295 295 295 295 294 294 294 294 293 293 293 292
314 313 313 312 312 312 311 311 310 309 309 308 307 307 307 307 306 306 306 306 306 307 307 307 306 306 305 304 302 301 300 299 298 298 297 297 297 298 298 298 298 297 297 297 297 297 297 297 297 296 296 296 296 296 295 293 292 291 290 290 290 289 289 289 288 288 290 294 297 296 294 294 294 294 295 294 294 294 294 294 293 293 293 292 292
314 313 313 312 312 312 311 310 310 309 309 308 307 307 307 306 306 305 305 306 307 307 307 306 305 304 304 303 303 301 300 299 298 298 297 297 297 297 297 297 297 297 297 297 297 297 296 296 296 296 296 296 296 296 295 294 292 291 290 289 289 289 289 289 288 287 287 289 294 295 295 294 293 294 294 294 294 293 294 294 293 293 293 292 292
314 313 313 313 312 311 310 310 309 309 308 308 307 307 307 306 306 305 305 305 305 305 305 305 305 304 303 303 302 301 300 299 298 297 297 297 297 297 297 297 297 297 297 296 296 296 296 296 296 296 296 296 296 296 295 293 292 291 290 290 289 289 289 288 288 288 287 286 289 291 293 295 295 295 294 293 293 293 293 293 293 293 292 292 292
313 313 312 312 311 310 310 309 309 308 308 307 307 306 306 306 306 305 305 305 304 304 303 303 303 303 303 303 302 301 300 299 298 297 297 296 296 296 297 297 297 297 296 296 296 296 296 296 296 295 295 296 296 296 295 293 292 291 290 290 290 289 289 288 288 287 287 286 286 287 289 291 292 295 296 293 292 292 292 292 292 292 292 292 292
313 312 312 311 311 310 309 309 309 308 307 307 306 306 306 306 305 305 305 305 304 304 303 303 303 302 302 302 302 301 300 300 298 297 297 296 296 296 296 296 296 296 296 296 296 296 296 296 295 295 295 295 296 296 295 293 291 291 290 290 289 289 289 288 288 287 287 286 286 286 287 287 287 290 294 294 293 292 292 292 292 292 291 291 291
Wind_Speed
22 20 19 18 17 16 16 16 15 14 13 13 12 11 11 10 9 8 8 7 7 6 6 5 5 4 4 3 2 2 2 1 1 1 1 1 2 2 3 4 4 4 4 4 4 3 4 4 4 4 5 5 5 5 5 5 5 5 5 6 6 6 7 7 7 7 7 6 5 4 3 1 1 1 1 2 2 2 3 3 2 2 3 3 3
21 20 19 18 17 16 16 15 15 15 14 13 12 11 11 10 10 9 9 8 7 7 6 6 6 5 5 4 3 3 3 2 1 1 1 2 3 2 2 2 3 3 3 4 4 3 3 3 3 3 3 3 4 3 4 5 6 6 5 5 5 6 6 7 7 7 7 7 6 5 4 2 0 0 0 1 1 2 2 3 2 2 3 3 4
19 19 19 18 17 16 15 15 14 14 14 15 14 13 12 11 11 10 10 9 9 8 8 7 7 7 6 5 5 4 4 3 3 3 2 1 1 1 1 1 1 1 1 2 3 3 3 2 3 2 2 2 3 4 5 6 6 6 5 4 4 6 6 7 7 7 6 6 6 5 4 3 1 2 2 1 1 3 3 2 2 2 3 3 4
19 18 19 19 18 16 15 14 13 13 14 15 15 14 13 12 12 12 12 11 10 10 9 9 9 8 7 6 6 5 5 5 4 4 4 3 3 2 2 1 1 1 1 1 2 2 2 2 1 1 2 3 3 5 6 7 6 6 5 4 4 5 5 6 7 6 6 5 5 4 3 3 2 2 3 2 1 3 5 4 2 3 3 4 5
20 19 19 19 18 17 16 15 13 13 14 15 15 15 14 13 12 12 11 11 11 11 11 10 10 9 8 8 7 7 7 7 7 7 7 6 6 5 5 4 3 3 2 2 2 2 1 1 2 2 2 4 5 6 7 7 6 6 6 5 5 5 4 5 5 4 4 4 4 4 4 4 4 1 2 4 4 4 5 4 4 5 5 5 6
20 20 20 19 18 18 17 15 15 15 14 15 15 14 13 13 12 12 12 12 12 12 11 11 11 10 10 10 10 10 10 10 10 10 9 8 8 8 8 8 7 6 5 5 4 5 5 5 5 6 7 8 8 8 8 8 8 7 7 6 6 5 4 4 3 3 2 2 2 3 5 5 6 3 1 3 5 7 6 5 6 6 7 7 7
20 20 21 20 19 19 17 16 16 15 15 15 15 14 13 12 12 12 12 12 12 12 12 12 12 12 12 11 12 11 11 11 11 11 10 10 10 10 10 10 10 10 9 10 9 9 9 9 10 10 10 10 10 10 10 10 10 10 9 9 9 8 6 5 4 4 3 2 1 2 3 5 6 5 3 3 5 7 7 6 6 6 7 7 7
21 21 21 21 20 19 18 17 16 15 15 14 14 13 13 13 13 13 13 13 13 13 13 13 13 13 13 12 12 11 11 11 11 10 10 11 11 11 10 10 10 11 12 12 12 12 12 12 12 12 12 12 12 12 12 12 12 12 12 11 11 11 10 8 7 6 5 4 3 2 2 3 5 5 5 4 5 7 9 8 6 6 8 8 8
21 22 21 22 21 20 19 18 17 15 15 14 14 13 13 13 13 14 14 14 13 13 13 13 12 12 12 11 11 10 10 9 9 9 9 9 9 9 9 9 9 10 11 11 12 12 13 13 13 13 13 13 14 14 14 14 14 14 14 14 14 14 13 12 10 9 8 7 6 5 3 3 4 4 5 5 6 8 10 10 8 8 9 9 9
20 22 22 23 22 21 20 19 18 17 16 15 14 14 13 13 13 14 14 14 13 13 12 11 10 10 10 10 9 9 8 8 8 8 8 8 8 8 8 9 9 9 9 10 10 10 11 11 12 12 13 13 13 13 14 15 15 15 15 15 15 15 15 15 14 13 12 11 9 8 6 6 5 4 5 6 7 9 10 10 10 9 9 10 10
20 22 23 23 23 22 22 20 19 18 17 16 15 14 14 13 13 13 12 12 12 11 10 9 9 8 8 8 8 7 7 8 8 8 8 8 9 9 9 9 9 10 10 10 10 10 10 10 10 11 11 12 12 13 13 14 14 15 15 16 16 16 16 16 15 15 14 14 13 12 10 9 8 6 6 7 7 8 10 11 11 10 9 10 9
20 22 24 24 24 24 23 22 20 19 17 15 15 14 14 13 13 12 12 12 11 11 10 9 8 8 7 7 6 6 6 6 6 6 7 7 8 8 8 9 9 9 9 9 9 9 8 8 8 9 9 10 10 11 12 12 13 14 15 15 16 16 16 16 16 15 15 15 15 14 13 12 11 9 8 8 8 7 8 10 11 10 10 9 9
18 21 24 24 25 24 24 23 21 20 17 16 15 14 14 13 13 13 13 12 12 11 11 10 9 8 7 6 5 4 4 4 4 4 4 5 5 5 5 6 6 5 6 5 5 5 5 4 5 5 5 5 5 6 7 7 8 9 11 12 13 13 14 15 15 15 15 15 15 15 14 14 13 12 11 10 10 8 7 9 11 11 10 10 10
15 19 23 24 25 24 24 23 21 20 17 16 16 15 15 14 14 14 14 13 13 12 11 10 9 8 7 6 5 4 3 3 3 2 2 2 2 2 2 2 2 2 2 2 1 1 1 1 1 2 2 2 2 3 3 3 4 5 6 7 8 9 9 11 12 13 14 15 15 15 15 15 14 14 13 12 12 11 9 10 13 12 12 13 13
15 18 21 24 25 25 24 23 22 20 18 18 17 17 16 16 15 15 15 14 14 13 13 12 11 9 8 6 5 4 4 3 3 3 3 2 2 2 2 2 2 3 2 2 2 2 1 0 1 1 2 3 3 3 3 4 4 4 5 5 5 6 6 7 8 9 10 12 14 15 16 16 16 15 14 13 13 13 11 11 12 13 15 15 14
15 18 21 24 25 25 25 23 22 21 20 19 19 18 18 18 17 16 16 16 15 15 14 13 12 10 8 7 5 5 4 4 4 4 4 4 4 4 3 3 3 2 2 1 1 0 1 1 2 3 3 4 4 4 4 4 4 4 5 5 5 5 5 5 6 6 7 9 11 13 15 16 16 16 15 14 13 13 11 11 12 13 15 15 14
17 19 22 24 25 25 25 24 23 22 22 21 20 20 19 19 18 18 17 17 16 16 15 13 12 10 8 6 5 5 5 5 5 5 5 5 5 5 4 3 3 2 1 0 1 2 2 3 3 4 4 5 5 5 5 5 5 5 5 5 5 5 5 5 5 5 6 7 8 10 12 14 15 16 15 15 14 13 10 10 12 12 14 14 14
18 20 23 25 26 26 26 25 25 25 24 22 21 20 20 19 18 18 18 18 17 16 16 14 12 9 7 6 5 4 4 5 5 6 6 6 6 5 4 4 3 2 1 1 1 2 3 3 4 5 5 6 7 7 7 7 7 6 6 6 6 6 5 5 5 5 5 6 6 7 9 11 13 15 15 15 15 14 11 10 12 14 14 15 15
20 21 23 26 27 27 27 27 27 27 25 24 22 21 21 20 19 19 18 18 18 18 17 15 13 10 8 6 5 5 5 5 5 5 6 6 5 5 4 3 3 2 2 1 1 2 3 4 4 5 6 7 8 8 9 9 9 9 8 7 7 6 6 6 6 6 5 6 6 6 7 8 10 12 14 16 16 16 15 15 15 16 17 18 17
22 23 24 26 28 28 28 28 28 28 27 26 24 23 22 21 20 19 19 19 19 19 18 16 13 11 8 6 5 5 5 5 5 5 5 5 5 5 4 3 3 3 2 2 3 4 4 5 7 8 9 9 10 10 10 11 11 11 10 10 9 8 7 7 7 6 6 6 6 6 6 7 8 10 12 14 15 15 17 17 17 17 18 19 19
24 24 25 27 28 29 30 29 29 29 28 28 26 25 23 23 21 20 20 20 20 19 18 16 14 11 9 7 5 4 4 4 5 5 5 5 5 5 5 4 4 4 3 4 5 6 7 8 9 10 11 12 13 13 13 13 13 13 13 12 11 10 10 9 8 8 7 7 7 7 7 7 8 9 11 12 14 14 15 15 15 15 16 17 18
24 25 26 27 29 30 31 31 31 30 30 29 28 27 25 24 23 22 22 21 21 20 19 17 15 12 10 7 5 4 4 5 5 5 5 5 5 5 5 4 4 4 4 5 7 8 9 10 12 13 14 15 15 16 16 16 16 15 15 14 13 13 12 11 10 9 8 8 8 8 7 8 8 9 10 11 12 13 13 13 13 13 13 14 14
26 25 25 26 29 30 31 32 32 31 31 30 30 28 27 26 25 24 23 22 22 21 20 18 16 14 11 9 7 6 5 6 6 6 7 6 6 6 6 6 6 6 7 7 9 10 11 13 14 15 16 16 17 17 18 17 17 17 16 15 15 14 13 13 11 11 10 10 10 9 9 9 9 9 9 10 11 12 12 12 12 12 12 12 12
27 25 24 26 29 30 31 32 32 32 32 31 31 30 29 27 27 26 25 24 23 22 21 20 18 16 14 12 9 8 7 7 8 8 8 8 8 8 8 8 8 8 9 10 10 12 13 14 15 16 16 17 18 18 19 18 18 18 17 16 16 15 14 14 13 12 11 11 11 11 11 10 10 10 10 10 10 11 11 12 12 12 12 12 12
27 26 27 28 30 30 31 32 33 33 33 33 32 32 30 29 29 28 26 25 24 24 23 21 20 18 16 14 12 10 9 8 9 9 10 10 10 10 10 9 9 9 10 11 12 13 13 15 15 16 17 18 18 19 19 19 19 18 18 17 16 16 15 14 14 13 12 12 12 12 12 11 11 11 11 11 11 11 11 12 12 12 12 12 12
30 30 30 30 30 30 32 33 33 34 34 34 33 33 32 31 30 30 28 26 26 25 24 23 21 20 18 16 15 13 12 10 10 11 11 12 12 12 11 11 11 11 11 12 13 13 14 15 16 16 17 18 19 19 19 19 19 18 17 17 16 16 15 14 14 13 13 12 12 13 13 13 12 13 12 12 12 12 12 12 12 12 12 13 12
31 32 31 31 31 31 32 33 34 35 35 35 35 34 34 32 31 31 29 28 27 27 26 24 23 22 20 18 17 15 14 13 12 12 13 13 13 14 13 13 13 13 13 13 14 14 15 15 16 17 17 18 18 18 18 18 18 17 16 16 16 15 15 14 13 13 13 12 12 13 13 13 13 13 13 13 13 13 13 13 13 13 13 13 13
31 31 31 32 32 32 33 34 35 35 36 36 36 36 35 33 33 32 30 29 28 28 26 25 24 23 21 19 18 17 16 15 15 14 14 15 15 15 14 14 14 14 14 14 15 15 15 16 16 17 17 18 17 17 17 17 16 15 15 15 14 14 14 14 13 13 12 12 11 12 12 13 13 13 13 13 13 13 13 13 13 13 13 13 13
34 31 31 32 32 33 33 35 35 36 36 37 37 37 36 35 35 34 32 31 30 28 26 25 25 24 22 20 19 18 17 17 16 16 16 16 17 16 16 15 15 15 15 15 15 15 15 16 17 17 18 17 17 16 16 15 15 14 14 14 13 13 13 13 12 12 11 11 11 10 11 12 12 12 12 12 13 13 13 13 13 13 14 14 13
37 33 33 33 32 34 34 35 35 36 36 37 38 38 38 38 37 36 34 33 31 29 27 27 26 25 23 21 20 19 18 18 18 17 17 18 18 17 17 16 15 15 15 15 15 15 16 17 17 18 18 17 17 16 15 15 15 14 14 13 13 12 12 12 12 11 11 10 10 9 10 10 11 10 10 11 12 12 12 13 13 13 13 13 13
39 38 36 35 34 35 35 36 36 36 36 37 38 39 39 39 38 36 35 34 32 30 29 28 27 26 25 23 21 20 19 19 19 19 19 19 19 18 17 16 16 16 15 16 16 16 17 17 18 18 18 18 17 16 16 15 15 14 14 13 13 12 12 12 12 11 10 10 9 8 8 8 9 9 9 10 11 11 11 12 12 12 12 11 11
41 40 38 37 37 37 36 37 37 37 37 37 38 39 39 40 39 37 36 34 33 32 31 29 29 27 26 24 22 22 21 21 21 21 21 20 20 19 18 17 16 16 16 16 16 16 17 17 18 18 18 18 17 17 17 16 15 15 14 14 13 13 12 12 12 11 10 9 8 7 6 6 7 8 9 10 11 10 9 9 10 10 9 9 8
40 39 39 39 39 39 38 38 39 39 39 38 38 38 39 40 39 38 37 35 34 33 31 30 29 29 27 26 24 24 23 23 22 22 22 21 21 20 18 18 17 17 17 17 17 17 17 17 17 18 18 17 17 17 17 16 16 16 15 14 14 13 13 13 12 11 10 9 7 6 5 5 6 6 7 8 8 7 6 6 6 6 6 6 7
39 39 40 40 40 40 40 40 40 40 39 38 38 38 39 40 39 39 38 37 35 34 32 31 30 30 28 27 26 25 25 24 23 23 23 23 22 21 20 19 18 18 17 17 17 16 16 16 17 18 17 18 18 18 17 17 16 16 16 15 15 14 14 13 13 11 10 8 6 4 4 5 5 5 4 5 4 3 2 3 4 5 5 6 6
41 39 38 38 40 41 41 42 41 40 40 40 39 38 38 38 38 39 39 38 36 35 33 32 31 30 29 28 28 27 26 26 25 25 25 24 23 22 21 20 19 19 18 18 17 16 16 17 17 18 18 18 18 18 18 18 17 17 16 16 15 14 14 13 12 11 9 6 3 3 4 5 5 4 5 5 3 2 2 2 3 5 6 7 7
42 38 37 38 41 42 42 43 42 41 41 40 39 37 37 37 37 37 38 38 37 36 34 33 32 31 31 30 29 28 28 27 26 26 26 25 24 23 22 21 20 20 19 18 17 17 17 17 17 17 18 18 18 18 18 18 18 17 16 16 15 14 13 12 12 10 8 4 2 2 2 3 4 6 6 4 3 3 3 3 4 5 6 7 7
42 39 38 39 41 43 43 43 43 42 41 40 39 38 37 36 36 36 38 39 38 37 35 34 33 32 32 31 30 29 29 28 27 28 27 26 25 24 23 22 21 20 20 19 18 17 17 18 18 17 17 18 18 18 19 19 18 18 17 15 14 14 13 12 10 8 6 5 3 2 5 6 6 5 5 6 7 6 6 6 7 7 8 8 8
43 41 39 40 41 42 43 44 43 43 42 41 40 38 37 36 35 35 37 39 38 37 36 35 34 34 33 32 31 30 30 29 29 29 28 27 25 25 24 23 22 21 20 19 18 17 17 17 17 18 18 18 19 20 20 19 19 19 17 15 14 13 12 11 9 6 6 6 5 7 8 7 6 6 8 10 10 10 9 10 10 10 11 11 10
44 42 40 41 42 43 44 45 44 44 44 42 41 39 37 36 35 36 37 39 39 38 37 36 36 35 34 32 31 31 31 30 30 30 29 28 27 26 25 24 23 22 21 19 18 17 16 16 16 17 18 19 19 20 21 20 20 19 19 17 14 12 12 10 7 5 6 6 8 9 7 6 8 9 11 11 11 12 13 13 13 13 14 14 13
44 42 41 42 44 44 46 46 46 45 45 44 42 41 39 38 37 37 38 40 40 40 39 38 37 36 34 33 32 31 31 31 31 31 30 28 27 26 25 24 23 22 21 19 18 16 15 15 15 16 17 18 19 20 20 21 21 20 20 17 14 14 12 8 5 4 4 9 10 5 4 8 10 11 11 12 13 14 15 15 15 16 16 16 16
42 42 42 43 45 46 47 48 47 46 46 46 45 43 42 40 39 38 39 40 41 41 40 39 39 37 35 34 33 32 32 32 32 31 30 29 28 27 26 25 24 23 21 20 18 16 15 14 15 16 17 17 18 18 19 20 21 21 21 18 15 13 10 8 5 4 8 14 6 3 6 11 11 11 12 13 14 15 15 16 17 18 19 19 19
41 42 43 43 45 47 48 48 47 47 47 47 46 45 43 41 39 37 37 39 41 41 40 40 39 38 36 35 34 34 34 34 33 32 31 30 29 29 27 26 25 24 22 20 18 16 15 14 15 16 17 17 17 17 18 18 19 20 21 22 20 14 10 7 7 4 16 11 4 5 11 13 12 12 13 13 14 15 16 17 19 20 21 22 22
39 40 42 44 46 48 48 48 48 48 47 47 46 44 42 40 38 36 35 37 39 39 39 39 38 38 38 37 36 35 35 34 33 33 32 31 31 29 28 27 26 25 23 21 19 17 15 14 14 15 16 17 17 17 17 17 17 18 19 21 22 19 11 2 7 14 17 5 4 13 16 15 15 15 15 15 16 16 17 19 20 22 23 23 24
38 40 43 45 46 47 49 49 48 48 47 46 46 44 42 40 39 37 35 35 36 37 38 39 39 39 39 39 37 36 36 35 34 34 33 32 32 30 29 28 27 25 23 21 19 17 15 14 13 14 16 17 16 17 16 16 15 16 18 18 19 17 8 6 18 22 10 5 13 18 18 19 19 17 18 18 19 19 20 21 22 23 24 25 25
37 39 41 44 45 46 48 48 47 47 46 46 45 44 43 42 40 38 37 37 37 38 40 41 42 42 41 40 39 37 37 36 35 35 34 33 32 31 30 29 28 26 24 22 20 18 16 14 13 14 16 16 16 16 16 15 15 15 16 15 13 12 13 20 28 21 12 15 19 18 20 23 21 20 20 21 22 22 23 24 24 25 25 26 27
37 37 39 41 43 45 46 46 46 46 46 46 45 45 44 43 42 41 40 40 41 42 42 42 43 42 42 41 39 38 37 37 36 36 35 34 34 33 32 30 29 27 25 23 21 19 16 14 13 14 15 17 16 16 16 15 15 15 15 15 13 13 20 26 24 23 26 25 19 18 23 23 22 23 23 24 25 25 26 26 26 26 27 27 28
35 35 38 40 42 44 44 44 45 45 45 45 46 45 45 44 43 41 40 40 41 42 41 41 41 40 40 39 38 38 38 38 38 37 36 36 35 34 33 32 30 28 26 24 22 20 17 15 14 13 15 17 17 17 17 15 15 15 15 16 15 16 19 21 21 25 32 32 28 24 24 23 26 26 25 27 28 28 27 27 28 29 29 29 29
32 34 36 38 41 43 42 43 43 44 44 45 45 45 44 43 42 41 41 41 41 41 40 41 40 39 39 38 37 38 38 38 39 38 37 37 36 36 35 33 31 29 27 25 22 20 17 15 14 14 15 17 17 17 17 16 15 15 15 15 15 15 15 16 17 19 23 33 38 34 30 29 29 27 27 30 31 31 31 31 31 31 31 32 31
30 31 33 36 40 41 41 42 42 43 43 44 44 44 43 42 41 41 41 41 42 42 42 41 40 39 38 38 37 38 38 39 40 39 39 38 38 37 36 35 33 30 28 25 23 21 18 16 15 14 15 17 18 17 18 17 16 16 15 15 14 14 13 12 13 14 16 24 32 35 36 36 33 29 30 35 36 35 35 34 34 34 34 33 32
29 30 33 36 38 39 40 41 42 42 42 42 43 42 42 42 41 42 42 42 42 43 44 43 42 40 39 39 38 39 39 40 40 41 40 40 39 39 38 36 34 31 29 27 25 22 19 17 15 14 15 17 18 18 18 17 16 16 16 16 15 14 13 12 11 12 14 18 24 29 33 36 38 34 31 36 40 38 37 36 36 36 35 34 33
29 31 34 36 37 38 39 40 40 41 41 41 41 41 41 41 41 41 41 42 43 44 44 45 44 43 42 41 40 40 40 41 41 41 41 41 40 40 39 37 34 32 30 28 25 22 20 18 16 15 15 17 18 18 19 18 16 16 16 16 17 16 15 14 13 14 15 18 23 28 30 32 37 37 33 35 38 39 38 38 38 37 35 35 34
Wind_Direction
190 188 193 198 194 190 192 195 194 194 190 187 186 187 187 190 193 191 190 187 183 178 175 165 164 170 171 172 166 175 197 215 239 242 271 325 357 340 333 338 342 348 351 355 354 354 354 1 358 353 359 7 11 12 17 20 12 0 357 357 359 3 4 9 14 19 24 31 34 35 37 48 247 263 271 295 305 316 331 339 345 331 321 320 315
190 189 194 198 198 195 196 196 196 197 192 186 179 177 177 179 183 187 187 185 185 180 180 178 175 175 173 173 171 166 175 186 198 160 110 74 48 24 5 354 350 351 344 337 332 338 337 337 332 335 350 351 350 347 354 354 350 346 347 354 1 3 1 2 3 10 17 24 26 28 34 36 39 351 140 66 357 300 309 344 341 320 309 306 300
191 192 194 198 201 199 200 199 198 199 197 192 181 177 173 172 173 177 176 174 176 175 176 172 168 168 170 175 173 165 162 168 167 156 152 120 65 58 59 36 6 8 347 323 314 318 316 316 313 312 317 312 312 311 322 331 337 340 343 351 359 2 0 1 358 358 4 13 21 28 34 24 28 47 31 94 59 282 277 307 311 311 313 321 315
193 194 193 197 201 201 204 204 202 201 197 193 188 181 176 173 169 170 167 164 167 168 171 170 166 167 173 175 169 168 170 178 189 198 212 233 230 229 228 221 227 189 188 271 277 284 288 299 306 295 297 295 302 306 315 321 326 327 330 335 336 344 350 356 359 359 357 358 3 10 16 357 343 41 14 342 258 272 275 277 282 304 317 350 346
192 194 196 197 199 201 205 208 208 205 194 189 188 185 183 182 180 181 179 178 180 181 183 186 186 185 192 191 190 195 200 206 216 224 227 231 231 234 237 236 231 215 198 208 231 218 196 171 179 208 273 288 294 297 301 302 302 305 309 311 310 317 325 338 347 354 357 354 350 342 340 334 326 12 29 325 307 301 294 293 287 289 298 320 339
193 193 197 198 200 200 203 209 210 206 197 191 191 193 194 195 196 196 198 197 197 199 200 204 207 205 208 207 211 214 215 220 226 231 233 236 239 240 240 241 238 232 218 203 204 205 203 207 225 249 266 272 277 279 281 281 280 282 287 291 292 292 296 308 312 321 336 347 350 342 330 322 320 319 24 311 309 317 312 319 315 306 307 306 312
196 194 197 199 201 201 204 207 207 203 198 196 197 200 200 199 200 198 201 200 199 201 202 206 209 208 209 210 213 215 218 224 230 236 241 244 246 245 243 241 238 234 227 219 217 221 228 237 247 256 261 264 268 269 270 270 272 274 277 280 282 282 281 284 284 287 283 278 291 324 322 311 311 307 296 269 287 300 292 315 340 337 336 325 313
197 195 196 198 201 202 204 204 203 199 196 196 198 200 199 199 199 199 200 199 199 200 202 205 205 206 207 209 211 214 218 224 231 236 241 243 244 244 242 239 236 232 231 231 231 235 242 248 252 255 258 260 263 264 266 267 269 271 273 276 278 278 277 275 274 273 270 265 267 275 289 292 296 298 293 277 277 276 277 300 326 332 337 337 328
198 196 196 198 201 202 203 203 199 194 193 197 201 204 203 202 201 200 201 201 200 199 203 204 202 205 206 207 210 213 218 224 228 233 237 240 243 244 245 244 241 240 238 239 239 241 245 249 254 257 258 260 262 263 265 266 268 270 271 273 275 277 276 276 275 271 267 265 265 264 261 266 276 284 282 279 279 275 281 296 303 309 318 323 323
199 197 197 199 201 202 203 201 196 194 197 202 208 211 210 206 202 202 202 201 199 200 204 203 201 201 203 206 207 211 217 224 228 233 240 244 249 251 253 253 252 251 250 251 251 250 251 253 256 259 261 262 264 266 267 269 271 272 273 273 273 275 276 276 275 272 269 266 265 263 258 255 258 266 269 268 273 279 285 289 291 297 303 306 310
200 197 198 200 201 202 202 199 197 199 202 208 213 212 211 208 205 203 202 202 201 202 203 202 202 201 204 207 208 214 218 223 229 233 239 244 248 250 251 253 254 255 257 260 262 263 262 261 261 262 265 267 269 271 272 274 276 276 277 276 276 275 275 275 273 271 268 265 264 263 259 255 253 254 258 261 265 275 285 290 291 292 293 292 294
202 198 198 201 201 200 200 199 200 204 207 211 215 211 207 205 204 202 200 201 201 200 200 201 201 203 205 207 211 215 222 226 230 232 234 237 240 244 246 248 251 254 259 263 267 270 272 271 270 269 270 272 273 274 276 277 278 278 278 277 276 275 274 273 272 269 266 263 261 260 258 255 251 249 248 252 257 258 275 289 293 294 295 292 290
207 203 200 202 201 201 201 201 203 206 208 211 213 208 204 202 200 199 198 198 198 199 198 197 194 193 192 191 195 198 210 217 225 231 233 236 236 239 239 241 242 244 249 254 262 266 274 277 278 279 278 277 275 277 277 279 280 280 280 279 278 276 275 272 269 266 263 260 257 256 254 252 249 245 243 244 252 254 263 275 278 284 292 295 295
215 210 205 205 205 205 204 205 207 207 207 209 208 203 201 199 198 197 197 196 195 195 191 187 182 178 175 174 175 176 180 182 195 207 221 237 235 234 221 208 195 184 179 175 178 178 206 258 300 302 305 304 301 300 292 290 287 285 285 286 287 286 284 276 271 266 262 258 253 251 249 248 246 243 241 240 244 249 254 262 268 276 285 290 290
219 217 212 209 208 208 207 209 209 207 205 204 202 199 199 196 197 196 194 192 189 187 183 179 175 172 171 170 172 171 171 170 171 179 186 192 188 179 158 143 130 123 116 113 109 107 100 64 328 320 317 315 316 318 315 313 306 302 298 299 303 302 298 287 280 272 264 258 253 249 247 245 244 244 242 240 240 242 247 257 265 273 280 282 282
220 218 218 215 212 211 211 211 210 207 205 202 200 198 197 195 195 195 191 190 187 184 180 177 175 173 173 173 176 176 175 175 171 173 175 172 169 163 156 151 141 132 122 109 83 15 336 324 314 311 311 308 310 310 310 311 308 307 307 310 309 307 302 293 286 277 268 261 254 250 247 246 245 244 243 240 237 238 250 264 267 271 278 280 276
221 218 217 217 217 215 214 213 212 208 207 205 202 200 199 196 194 193 191 189 187 184 182 180 178 176 176 176 178 180 177 175 173 173 172 173 170 169 168 163 161 159 161 238 312 316 319 320 323 322 322 319 318 316 313 310 306 305 306 306 304 302 298 292 287 278 269 261 256 251 248 245 243 242 240 238 233 228 240 265 269 265 270 274 273
224 221 217 218 219 218 217 216 215 213 212 210 207 206 203 200 196 194 192 190 188 186 185 183 183 183 182 183 183 184 182 178 176 175 174 175 175 175 176 173 177 181 195 248 304 315 325 327 334 333 334 334 330 331 327 324 320 314 308 303 300 297 295 291 285 277 271 262 256 251 248 244 240 237 234 233 231 223 222 238 248 249 252 259 265
227 225 220 220 220 221 220 219 219 218 218 216 213 212 208 205 200 197 195 193 192 190 189 187 188 187 187 188 188 190 188 187 186 186 185 184 184 184 186 191 198 201 220 243 279 301 321 328 333 336 336 337 334 334 331 327 324 319 314 309 305 300 295 291 287 280 272 264 256 251 249 247 242 237 232 231 231 225 221 224 228 232 239 248 256
229 228 224 222 222 222 223 222 223 221 221 219 217 215 213 210 204 201 199 197 196 194 193 191 191 190 191 192 192 193 191 197 199 202 202 201 202 202 209 214 227 240 255 278 300 315 326 330 333 336 335 335 333 331 328 324 320 316 313 310 307 303 299 294 288 282 275 268 261 254 250 250 248 246 242 240 240 235 231 232 235 237 240 248 256
229 228 226 224 224 224 224 224 224 223 223 221 220 218 215 213 208 205 203 202 201 198 196 194 194 194 195 199 199 202 203 213 215 217 218 217 220 219 225 229 240 257 278 297 310 319 324 329 330 331 332 331 330 329 327 324 319 315 311 308 305 302 299 294 289 284 281 276 269 262 254 250 248 249 250 252 252 250 245 245 249 251 252 255 261
231 230 228 226 226 227 226 226 226 225 224 223 222 220 217 215 212 208 206 206 204 202 201 197 197 198 202 208 213 222 230 239 240 242 242 238 241 241 247 255 263 277 293 306 315 320 322 324 324 324 324 324 324 324 323 321 317 314 309 305 301 298 296 293 291 287 284 281 276 271 263 256 251 248 248 250 251 252 251 250 251 253 255 257 261
236 236 234 232 229 229 229 229 228 227 226 226 224 222 219 217 215 212 209 209 208 206 204 202 201 202 208 214 219 229 240 249 253 255 257 256 258 263 271 276 285 296 304 313 317 319 319 319 318 317 316 316 316 316 315 314 312 310 306 301 296 292 290 288 287 285 284 281 279 277 272 267 261 256 253 252 252 253 253 252 251 250 251 251 253
246 246 243 238 234 232 232 231 230 229 228 228 226 224 222 219 218 216 213 211 211 209 207 206 204 206 211 214 219 228 240 249 254 257 259 261 264 268 272 279 288 296 303 308 311 312 311 310 310 308 308 308 308 307 308 308 307 306 303 299 295 290 286 284 282 281 281 280 279 279 277 276 272 268 264 261 260 260 260 260 258 256 255 252 250
254 250 245 241 238 235 234 233 232 231 230 230 229 227 225 222 221 220 217 214 214 212 210 208 206 209 212 213 217 224 237 246 253 256 257 261 263 266 270 276 282 288 293 297 299 301 301 301 301 300 300 300 300 301 302 303 304 303 301 298 295 291 287 284 282 280 278 278 279 279 279 278 277 274 272 270 267 267 267 268 268 268 266 262 258
248 247 246 245 242 239 237 236 234 233 231 231 230 229 228 225 224 224 221 218 216 215 213 211 209 211 213 214 220 225 235 242 249 253 254 257 258 261 265 270 275 280 283 286 289 291 293 294 294 295 296 297 298 299 301 303 304 304 302 298 295 292 289 287 285 282 278 277 277 278 278 278 276 276 276 275 274 274 273 273 274 274 274 271 268
248 249 249 247 244 240 238 237 236 235 232 231 230 229 229 227 227 227 225 222 219 218 216 214 213 215 217 219 224 230 235 241 245 248 250 252 254 257 260 265 270 274 277 280 283 285 287 289 291 294 296 298 300 302 305 307 308 307 304 300 296 293 291 289 287 285 282 278 276 275 276 276 275 275 275 276 275 275 274 275 276 275 275 275 275
250 250 249 247 245 242 239 238 237 236 234 232 230 229 228 227 228 228 226 225 222 222 221 218 218 220 221 223 226 231 235 239 243 244 247 248 250 254 257 263 267 271 274 276 278 281 284 287 291 294 297 300 303 306 309 310 310 308 304 299 295 292 290 289 288 286 285 282 278 275 274 273 273 273 273 273 273 272 272 274 275 276 277 278 280
247 247 247 247 247 244 240 239 238 236 234 232 231 230 229 228 228 229 227 226 225 225 224 222 223 223 223 224 227 231 235 239 242 242 243 245 247 251 255 260 264 268 270 273 275 278 282 286 290 294 298 301 304 309 311 312 311 308 304 298 294 290 288 287 286 286 286 284 280 277 276 274 272 271 270 270 269 268 269 270 271 274 276 278 279
248 246 246 247 247 245 242 241 240 238 236 233 232 232 231 230 230 231 229 228 228 226 225 224 225 225 225 226 228 232 236 239 242 242 242 243 245 249 253 257 262 264 266 268 271 274 279 284 288 293 298 301 305 308 311 312 311 309 305 299 295 291 289 288 287 286 285 284 282 280 279 279 278 275 272 267 263 261 261 262 263 264 267 270 271
248 245 245 246 245 245 244 242 240 239 238 236 234 233 233 233 233 232 231 230 229 227 226 226 226 226 227 227 229 231 235 238 240 241 241 241 244 247 251 255 259 260 262 264 267 272 276 281 287 291 295 300 303 306 310 312 312 310 306 302 299 295 293 291 289 288 287 286 285 283 282 283 282 278 273 265 258 255 256 258 260 262 264 266 267
249 249 248 246 245 244 244 242 240 239 238 237 236 235 234 234 234 233 232 231 229 228 227 227 227 228 228 228 229 232 235 238 239 240 240 240 242 245 248 252 255 257 259 261 265 271 276 282 287 291 295 298 302 306 310 312 312 310 307 304 302 300 299 296 294 291 290 290 289 286 281 275 273 271 267 260 255 253 254 258 259 263 268 271 274
254 254 251 248 248 246 244 242 240 239 238 237 236 236 235 234 234 233 232 231 230 229 229 228 228 229 230 230 231 233 235 238 239 239 239 239 241 244 247 250 252 254 256 259 264 270 277 284 288 292 295 297 300 304 308 311 312 310 309 308 306 305 304 303 300 296 294 293 290 281 261 244 243 247 253 255 255 255 258 261 261 265 274 280 286
256 254 252 252 251 247 245 243 241 240 239 237 236 235 235 234 234 233 232 231 230 230 229 228 228 229 230 231 232 234 236 238 238 238 238 238 240 243 246 248 250 251 253 258 263 269 277 284 288 290 291 294 296 299 303 307 309 310 310 310 309 308 307 305 302 301 300 295 288 262 221 205 204 212 237 251 256 264 267 266 264 263 268 276 281
255 253 254 255 252 249 246 243 241 241 239 237 235 234 235 234 233 232 231 230 230 230 229 228 228 229 230 232 233 234 236 237 237 237 237 237 239 241 244 246 248 249 252 256 261 268 276 281 285 286 289 292 294 297 300 303 307 309 310 311 310 309 307 304 303 305 303 295 276 210 182 183 196 225 244 241 240 256 261 258 260 261 261 264 267
256 254 255 255 252 250 247 245 243 241 240 238 236 234 234 234 232 231 230 230 230 230 229 228 228 229 230 232 233 234 236 236 235 235 235 236 237 239 241 243 245 247 250 254 259 267 275 282 284 286 289 292 295 298 299 302 305 307 310 311 309 308 306 302 303 306 301 280 228 186 197 231 255 266 261 255 276 301 296 288 284 279 276 272 270
259 255 253 253 253 251 247 245 243 241 241 240 237 234 233 233 232 230 229 229 229 229 229 228 228 229 230 232 233 234 235 235 234 234 234 235 235 237 239 240 241 244 247 251 258 267 277 283 287 290 292 294 295 296 298 300 302 304 308 309 306 307 305 302 303 301 284 257 248 299 310 303 298 296 302 321 329 328 321 314 311 307 300 291 285
260 256 254 254 253 253 250 246 244 241 239 238 237 234 233 232 230 229 228 228 229 229 229 228 228 229 230 231 232 234 234 233 233 233 233 232 233 234 236 237 239 241 245 250 256 266 277 284 289 293 293 294 293 294 296 297 300 302 305 306 307 308 305 302 299 287 263 251 283 321 321 321 325 326 330 335 338 335 330 325 323 320 316 309 301
259 255 254 253 251 251 249 245 242 239 236 236 235 233 231 229 228 227 226 227 228 228 228 228 228 228 229 230 231 233 233 232 232 232 232 232 232 233 234 235 237 241 244 249 256 264 274 283 290 292 292 292 292 294 296 298 301 303 305 308 309 308 304 300 291 265 245 266 311 325 328 338 336 332 335 338 339 335 332 329 326 325 322 318 313
258 255 252 251 249 248 245 242 239 237 234 232 231 229 227 225 224 224 224 225 226 226 227 227 227 227 228 229 230 231 232 232 232 231 231 231 232 233 234 235 237 241 244 249 255 262 272 282 290 291 291 291 293 296 298 300 302 303 305 306 309 311 306 299 272 225 264 311 319 315 327 340 336 336 339 339 335 331 331 329 327 326 323 322 319
254 252 251 250 249 246 243 240 237 235 232 231 229 228 227 225 224 225 224 224 224 225 225 226 227 227 227 229 230 230 231 232 231 231 231 231 232 232 233 235 238 240 243 247 253 260 271 282 289 289 289 290 293 296 298 301 304 306 304 301 309 317 314 301 231 197 326 325 303 259 324 338 338 340 339 335 332 331 330 328 325 325 324 323 321
253 253 253 251 247 244 242 240 237 234 233 232 231 231 231 231 232 232 229 226 225 225 226 226 227 227 227 228 229 230 230 231 231 231 231 232 233 233 234 235 237 239 241 245 250 258 268 279 286 288 288 289 292 295 298 303 309 316 316 312 315 322 324 299 212 267 328 320 231 293 326 334 334 335 336 334 331 330 328 326 325 326 326 326 325
256 255 253 248 244 242 240 238 236 235 234 233 232 233 234 235 236 236 233 229 228 228 228 229 229 228 228 228 228 229 230 230 231 231 232 233 234 234 234 235 236 238 240 244 249 256 265 275 284 287 288 288 291 296 302 308 314 323 327 324 322 327 338 283 239 303 318 286 279 323 327 331 332 333 335 333 330 328 326 325 326 327 328 328 328
251 250 248 244 241 241 239 237 235 235 233 233 232 232 233 233 232 232 233 232 230 229 229 230 230 229 229 228 228 229 229 230 231 231 232 233 233 232 232 234 235 236 238 242 247 254 263 274 283 285 286 288 293 299 304 311 319 326 331 331 328 329 340 318 309 314 308 276 313 324 328 329 330 332 333 331 328 327 327 327 328 328 328 328 329
249 249 247 244 241 240 238 236 235 234 233 232 231 230 229 228 227 225 226 228 228 228 228 228 228 228 228 228 229 229 229 230 230 231 232 232 232 231 231 232 233 234 237 241 246 253 262 272 281 284 286 288 293 299 304 312 321 329 333 334 330 321 317 323 324 319 302 301 311 322 329 329 328 329 329 327 326 326 327 328 327 327 327 327 327
252 250 246 243 241 239 237 235 235 233 232 230 229 229 229 229 228 226 224 224 223 224 225 226 227 227 228 228 228 229 229 230 230 231 231 231 230 230 230 231 231 233 236 239 245 252 260 270 278 284 286 288 292 297 301 308 319 327 332 331 326 317 318 325 328 319 310 307 305 318 327 327 326 328 328 325 323 324 327 328 326 327 328 326 326
253 246 241 239 238 237 236 235 234 233 231 230 229 229 230 230 232 232 232 230 227 226 227 228 229 229 230 229 228 228 229 230 230 231 230 230 229 229 229 230 230 232 234 239 245 250 257 266 275 280 284 286 290 295 298 303 314 323 328 326 323 320 321 324 324 321 319 312 307 316 324 325 325 326 327 325 322 323 326 327 326 327 328 327 327
249 243 239 237 237 236 235 235 234 233 231 230 230 230 231 232 234 235 236 236 235 234 232 231 231 232 232 232 230 230 230 230 231 231 231 230 229 228 228 228 229 230 234 239 243 248 254 262 269 275 279 284 287 291 295 298 307 317 321 321 318 317 319 321 318 318 316 311 312 318 321 322 323 325 327 325 323 326 328 327 328 328 327 327 328
246 243 240 238 237 235 234 233 232 232 231 230 231 231 233 235 236 237 237 237 237 237 237 236 234 233 233 233 232 232 231 230 231 231 230 230 229 228 228 228 228 230 234 238 241 246 252 259 264 270 276 280 283 286 290 293 302 312 316 316 314 313 313 314 312 307 304 304 310 317 321 320 318 321 330 328 326 329 329 328 330 328 327 329 329
243 241 238 236 235 234 233 232 231 232 231 231 232 232 234 235 236 238 238 238 236 236 237 237 236 236 234 233 232 232 232 231 231 231 230 229 229 228 228 228 229 231 233 236 239 243 248 255 260 266 273 277 280 284 287 290 298 307 312 313 312 311 310 309 305 300 298 296 300 309 318 321 318 319 327 328 326 329 329 329 329 327 328 330 330
238 236 235 235 235 235 234 233 232 232 232 231 232 233 235 236 237 238 238 238 237 237 236 236 236 236 235 235 234 233 233 232 232 231 230 229 228 229 228 229 229 230 232 235 238 241 245 251 257 262 269 275 278 281 285 287 293 302 307 309 310 308 308 310 309 304 302 302 300 303 312 317 315 316 323 324 322 325 327 328 327 327 329 331 330